KUZBASS-300 (RS34S) (53375 NORAD) Tracking and Keplerian Element Data

This shows tracking and keplerian element data for the satellite.

Feedback or suggestion? Click here.




ElementValue
Catalog53375
NameKUZBASS-300 (RS34S)
Epoch Orbit9771
Epoch Day125.94921697
Epoch Year2024
RAAN46.2646
Inclination97.3814
Eccentricity0.0007875
Argument of Perigee132.9812
Mean Anonmoly227.2124
Mean Motion15.93260096
Decay Rate0.00403837
L11 53375U 22096F 24125.94921697 .00403837 65429-4 11485-2 0 9999
L22 53375 97.3814 46.2646 0007875 132.9812 227.2124 15.93260096 97713



Live tracking and technical data element details for KUZBASS-300 (RS34S) (NORAD 53375). KUZBASS-300 (RS34S) can be tracked NOW for your location showing map with azimuth and elevation plus other details from your city location.







IsCatalogInMostPopularTable: catalog: 53375, numindb: 41
Update: records affected: 1



GetName: 53375 KUZBASS-300 (RS34S)

Hit Count: updated at: Thu, 23 Jan 2025 17:24:06 GMT